Voltar ao catálogo

STARLINK-32167

AtivoComunicaçõesVLEO
NORAD 60268·PAYLOAD·🇺🇸 United States

Lançado Jul 27, 2024 de Cape Canaveral Space Force Station

Loading…

Próximas Passagens (próximas 24 horas)

TLE

AtualizadoSource: CelesTrak SupGP

Época: Sep 14, 2026, 21:02 UTC

1 60268C 24131P   26257.87687500  .00045753  00000+0  13518-2 0  2576
2 60268  53.1574 251.9518 0001349  80.5744  94.8953 15.34367629    10

Acompanhe STARLINK-32167 em tempo real com AllMySat

Download on the App Store